SCP
0 0 0 0 0 0 0 0 0 0 0 1 1 1 2 2 2 2 2 1 1 1 2 3 4 4 3 2 1 1 1 1 1 1 1 1 1 1 1 1 1 1 1 1
0 0 0 0 0 0 0 0 0 0 0 1 1 1 2 2 2 2 1 1 1 1 2 3 4 3 2 2 1 1 1 1 1 1 1 1 1 1 1 1 1 1 1 1
0 0 0 0 0 0 0 0 0 0 0 0 0 1 1 2 2 2 1 1 1 2 3 3 3 3 2 2 1 1 1 1 1 1 1 1 1 1 1 1 1 1 1 2
0 0 0 0 0 0 0 0 0 0 0 0 0 0 1 2 3 3 2 1 1 2 3 3 3 3 2 2 1 1 1 1 1 1 1 1 1 1 1 1 1 1 2 2
0 0 0 0 0 0 0 0 0 0 0 0 0 0 0 1 2 3 2 2 2 3 3 3 3 3 3 2 2 2 1 1 1 1 1 2 2 2 2 1 1 1 2 2
0 0 0 0 0 0 0 0 0 0 0 0 0 0 0 1 2 2 2 2 3 3 3 3 3 4 4 3 2 1 1 1 1 2 2 2 2 2 2 2 1 1 1 1
0 0 0 0 0 0 0 0 0 0 0 0 0 0 0 0 1 2 2 2 3 3 4 5 5 5 4 3 2 1 1 1 2 2 2 2 2 2 2 2 1 1 1 1
0 0 0 0 0 0 0 0 0 0 0 0 0 0 0 1 1 1 2 2 2 3 4 6 6 5 3 2 1 1 2 2 2 2 2 2 3 3 2 2 1 1 1 1
0 0 0 0 0 0 0 0 0 0 0 0 0 0 1 1 1 2 2 2 2 3 4 5 5 4 3 2 2 2 2 3 3 3 3 3 3 2 2 2 2 1 1 1
0 0 0 0 0 0 0 0 0 0 0 0 0 0 1 1 2 2 2 2 2 3 3 3 3 3 3 3 2 3 4 4 4 3 3 2 2 2 2 2 2 2 1 1
0 0 0 0 0 0 0 0 0 0 0 0 0 0 0 1 2 2 2 2 2 3 3 3 4 4 4 4 3 4 5 5 4 3 2 2 2 2 2 2 2 2 2 1
0 0 0 0 0 0 0 0 0 0 0 0 0 0 0 1 1 2 2 2 3 3 4 4 5 5 5 5 5 5 5 5 4 3 2 2 3 3 3 3 3 2 2 1
0 0 0 0 0 0 0 0 0 0 0 0 0 0 1 1 1 2 2 2 3 5 5 6 5 5 5 6 6 6 5 5 4 4 3 3 4 4 4 4 3 2 2 2
0 0 0 0 0 0 0 0 0 0 0 0 0 0 1 1 2 2 2 2 4 5 6 6 5 5 5 6 7 7 6 5 4 4 4 4 4 4 4 4 3 2 2 2
0 0 0 0 0 0 0 0 0 0 0 0 0 0 1 1 2 2 2 2 4 5 6 6 5 5 5 6 7 8 7 5 4 4 4 3 3 3 4 4 3 2 2 2
0 0 0 0 0 0 0 0 0 0 0 0 0 0 1 2 2 2 2 3 3 5 6 7 6 6 6 6 7 8 8 6 5 4 4 4 3 3 3 4 4 3 2 2
0 0 0 0 0 0 0 0 0 0 0 0 0 0 1 2 2 2 2 3 3 5 7 8 9 8 7 7 8 9 9 7 6 5 5 5 5 4 4 4 4 4 3 2
0 0 0 0 0 0 0 0 0 0 0 0 0 1 1 2 3 3 3 3 3 4 6 9 10 10 9 9 10 10 10 9 8 8 7 7 6 5 4 5 5 4 4 3
0 0 0 0 0 0 0 0 0 0 0 0 1 1 2 3 3 3 3 3 3 4 6 9 10 10 10 11 11 12 11 12 11 10 8 7 6 5 5 5 6 6 4 4
0 0 0 0 0 0 0 0 0 0 0 0 1 1 3 3 3 2 2 3 3 4 6 8 10 10 10 11 12 13 14 16 15 11 8 7 6 6 6 7 7 6 5 4
0 0 0 0 0 0 0 0 0 0 0 0 1 1 3 4 3 3 3 3 3 4 5 7 8 8 8 10 12 13 14 16 14 10 8 7 7 7 7 8 8 6 6 5
0 0 0 0 0 0 0 0 0 0 0 0 1 2 4 4 4 4 5 5 4 4 5 5 6 6 6 7 8 8 9 10 8 7 6 6 7 8 9 8 7 6 6 6
0 0 0 0 0 0 0 0 0 0 0 0 1 3 4 5 5 6 7 7 7 6 5 5 5 5 4 4 4 4 4 4 4 3 5 7 9 9 9 7 6 6 6 6
0 0 0 1 1 0 0 0 0 1 1 2 3 4 4 5 5 6 7 8 8 8 6 5 5 5 4 4 4 3 3 2 3 3 5 8 10 8 6 5 4 5 5 5
1 1 1 1 1 1 0 1 1 1 2 4 5 5 5 5 5 5 6 7 7 6 6 5 5 4 4 4 3 3 3 3 4 5 6 7 7 5 4 3 3 2 2 2
1 1 1 1 1 0 0 1 1 2 4 5 6 5 5 4 4 4 4 5 5 5 5 5 5 4 3 3 3 3 3 4 4 5 6 6 4 3 3 2 2 1 1 1
Wind_Speed
4 5 2 5 5 5 5 4 3 3 3 4 5 4 5 8 8 8 8 7 8 8 5 5 5 5 5 4 4 4 3 2 3 2 1 1 1 0 0 1 2 2 2 2
6 0 3 3 4 5 4 3 1 1 1 4 2 3 3 7 10 10 10 10 9 7 4 5 5 5 6 5 5 4 3 3 3 2 2 2 1 1 1 1 1 1 2 2
4 3 2 4 4 4 2 5 4 2 2 3 3 3 2 3 4 5 6 7 7 9 8 7 7 6 5 6 6 5 4 3 3 3 2 2 2 1 1 1 1 1 1 2
2 2 3 4 3 4 2 4 4 4 4 1 2 2 6 3 4 7 8 8 9 9 8 8 8 7 8 7 6 5 4 3 3 3 3 3 2 1 2 1 1 1 1 1
3 2 3 3 4 5 4 3 4 3 4 2 1 2 8 1 5 9 10 10 10 10 10 10 10 9 7 7 6 5 4 3 3 4 4 4 2 2 1 0 1 1 1 1
3 2 3 4 2 4 6 7 7 6 5 0 3 3 7 5 8 7 8 9 9 9 9 8 7 7 6 6 6 5 5 3 3 4 4 4 3 2 1 1 1 1 1 1
2 3 2 2 4 3 5 7 5 5 4 5 2 2 9 7 6 7 7 8 9 8 9 9 8 8 8 7 7 6 6 5 4 4 4 4 4 3 3 2 1 1 1 1
3 4 3 2 5 6 4 9 9 5 5 4 1 5 8 5 4 4 4 4 5 7 7 9 10 9 8 8 8 8 8 7 5 5 4 3 3 2 2 2 1 2 2 2
6 5 4 2 2 9 6 3 6 8 3 0 4 6 8 2 2 1 1 3 5 7 7 8 8 8 8 8 9 9 8 6 5 5 4 3 2 2 2 1 1 1 1 2
7 3 3 1 4 5 5 9 7 7 6 2 4 4 5 4 3 2 2 4 5 6 6 6 7 8 8 7 6 6 6 6 5 4 4 3 2 2 2 1 0 1 1 1
4 4 2 2 3 5 4 4 6 5 5 7 3 8 7 7 6 5 6 5 6 6 6 6 6 7 7 6 6 6 6 6 5 5 4 3 2 2 1 0 1 1 1 1
4 6 1 4 3 2 4 7 8 6 3 4 4 9 5 5 5 5 5 4 4 5 5 6 6 6 6 6 6 6 6 6 5 5 4 4 2 2 2 1 2 1 1 1
6 6 3 4 4 2 3 3 4 7 6 5 5 8 4 1 2 3 4 3 3 4 5 5 5 6 6 6 6 6 6 6 5 5 5 3 3 2 2 1 0 0 0 1
6 5 7 9 8 4 2 3 4 6 5 5 7 7 5 4 4 3 3 3 3 4 5 5 5 5 6 6 6 6 5 5 6 5 5 4 3 3 2 1 1 1 0 0
5 4 4 4 4 4 4 5 6 6 8 8 8 8 9 8 7 5 4 3 4 4 5 6 6 5 5 5 5 5 5 5 6 6 5 4 3 2 1 1 1 1 1 0
4 5 3 1 2 3 2 4 6 5 5 5 4 8 7 4 3 3 4 5 6 6 6 6 5 6 6 7 7 6 5 5 5 6 5 4 3 3 2 1 1 1 1 1
3 5 4 3 2 1 4 5 5 4 4 6 7 9 3 4 6 8 7 7 7 6 6 6 6 6 6 6 6 7 6 5 5 5 4 4 4 4 2 2 2 2 1 1
6 5 4 3 2 5 9 4 4 5 4 4 5 5 6 7 6 4 4 6 5 5 5 5 5 5 4 4 5 5 5 5 5 4 4 4 4 3 3 2 2 2 2 2
5 8 5 4 4 5 6 2 4 5 4 4 4 3 2 2 3 1 2 4 5 4 4 4 4 4 5 5 5 6 5 5 5 5 4 4 4 4 3 3 2 2 2 2
4 5 6 5 5 7 8 3 2 4 4 4 4 4 3 5 3 5 3 3 3 3 4 4 4 5 5 5 6 6 6 6 5 5 4 4 4 4 4 3 2 2 3 2
3 3 4 5 4 7 6 2 3 5 8 4 5 5 6 6 6 3 3 3 3 3 4 5 5 5 5 5 6 6 5 4 4 4 4 4 4 4 4 3 3 4 3 3
6 5 5 5 4 8 2 3 6 7 3 3 4 5 5 4 2 3 4 4 4 4 4 5 5 5 4 5 6 6 4 4 4 4 4 4 4 4 4 4 4 4 4 3
4 6 6 7 7 5 2 4 3 2 2 2 3 3 5 4 3 3 3 4 3 4 4 4 5 5 4 4 5 6 3 4 5 5 4 4 4 4 4 4 4 3 3 3
1 2 3 1 4 3 2 2 1 1 2 2 3 4 5 5 5 4 4 3 3 3 4 4 5 5 3 3 4 4 4 5 5 5 5 4 4 4 4 3 3 3 3 3
2 1 2 1 3 3 3 2 1 0 2 3 3 3 5 6 5 4 4 3 3 3 3 4 4 4 4 3 3 4 4 6 6 5 4 4 3 4 3 3 2 2 2 2
3 4 5 5 5 3 4 3 1 1 1 3 4 4 4 4 5 4 3 2 3 3 3 4 4 4 3 4 3 3 4 6 6 5 4 3 3 3 3 3 2 4 2 3
Wind_Direction
34 75 149 194 178 158 148 149 195 233 209 158 198 225 202 185 188 196 201 203 209 216 210 183 180 173 164 168 173 175 170 171 148 138 142 144 183 218 217 230 222 208 201 187
47 319 216 158 139 120 132 145 187 328 103 149 185 257 221 196 202 203 204 206 208 206 194 186 177 172 174 177 178 176 179 175 176 171 162 160 158 196 219 254 254 215 200 195
160 225 166 134 127 126 154 174 184 168 43 47 84 334 266 234 214 216 215 210 205 201 198 189 180 181 178 185 188 189 187 180 179 163 127 93 63 36 21 346 323 284 210 203
205 245 131 124 154 142 213 206 165 138 108 321 105 258 279 239 230 222 218 209 209 203 193 187 184 184 189 195 187 183 183 177 172 155 151 154 164 184 227 245 271 305 290 246
230 180 137 156 191 162 180 106 107 112 122 70 30 155 282 259 240 238 222 212 208 199 191 191 190 188 190 185 181 181 175 172 167 164 168 168 177 196 203 193 307 322 324 305
239 257 193 192 165 143 126 75 57 51 71 74 235 169 268 234 225 242 225 213 203 194 189 189 185 174 181 180 177 173 171 177 173 173 177 180 181 176 163 216 264 293 314 321
341 321 296 149 102 55 96 90 43 11 17 251 260 195 249 252 239 232 225 209 198 186 182 180 179 179 183 183 183 177 176 186 182 180 187 189 185 174 188 210 225 249 288 302
149 272 248 193 163 160 161 135 151 180 209 269 300 231 255 265 268 252 222 196 181 179 184 186 186 183 183 187 186 184 187 195 186 185 195 192 184 177 193 209 217 235 244 254
166 241 283 237 160 133 131 143 152 128 148 252 281 286 302 311 339 346 177 153 171 183 185 186 181 182 181 187 191 189 188 191 187 186 183 178 175 178 192 205 220 244 251 250
151 203 278 272 76 36 130 140 105 115 140 223 286 276 253 261 258 268 210 191 193 184 182 180 177 181 184 186 182 174 178 182 182 179 182 181 180 191 187 152 148 265 274 285
132 151 303 70 157 167 103 91 103 111 146 153 221 265 232 219 215 218 225 210 199 189 183 180 180 181 174 164 163 167 171 170 171 176 175 171 167 167 137 103 288 264 280 291
138 121 204 255 262 186 151 156 143 145 194 167 171 260 275 232 223 213 222 219 195 183 178 174 174 167 159 159 163 166 168 170 177 173 161 167 157 140 159 186 249 228 264 285
138 117 89 351 345 26 99 129 133 123 117 151 171 258 306 310 229 220 210 211 188 171 166 161 160 164 167 166 161 162 167 168 164 156 152 152 157 161 170 168 160 126 276 319
118 120 160 189 209 187 164 158 148 126 145 187 216 243 284 265 242 242 222 200 180 174 170 163 163 169 172 168 165 165 169 164 156 152 153 164 174 177 178 164 151 162 165 24
117 149 188 213 212 176 187 192 178 177 180 184 222 225 239 230 221 216 201 181 172 180 180 177 172 172 172 167 169 170 171 163 157 153 158 170 167 155 138 138 142 132 111 102
97 144 153 231 211 187 211 220 201 200 188 199 216 247 247 233 201 194 193 188 188 190 189 186 180 175 175 177 178 175 175 166 155 153 159 154 144 135 133 140 136 117 93 58
120 128 135 221 255 94 251 221 203 204 197 175 204 233 209 193 200 200 199 195 195 190 181 183 187 186 184 183 174 175 174 157 152 159 157 148 145 141 137 142 122 109 94 74
142 123 131 152 128 215 241 231 183 179 216 209 221 230 203 206 206 200 190 187 192 188 180 182 182 175 171 160 155 155 149 148 151 154 149 145 145 144 135 123 115 106 91 85
156 137 127 133 174 257 283 226 172 170 242 222 212 225 197 132 77 330 205 184 196 191 182 181 174 159 149 144 142 139 142 143 146 153 155 154 153 150 140 137 137 124 105 90
83 113 120 133 160 219 240 238 190 131 257 236 190 187 157 127 148 237 206 169 177 170 155 152 143 130 134 137 134 136 143 144 157 166 163 153 148 149 148 144 135 118 116 113
81 82 130 152 190 247 247 262 121 166 233 223 189 184 170 183 205 207 155 148 152 154 143 137 135 136 143 137 131 133 141 155 159 146 136 134 139 146 143 131 124 122 117 108
160 150 169 149 177 244 251 138 177 215 233 185 183 180 180 189 156 126 132 134 134 135 131 131 133 131 127 131 135 137 150 151 134 131 127 125 125 132 130 123 117 116 119 113
180 182 181 184 207 240 241 219 237 195 197 205 182 186 161 150 146 132 126 125 126 136 134 134 137 131 123 134 142 145 157 135 126 121 117 113 110 107 117 122 127 124 122 123
257 147 139 223 267 277 280 276 289 202 184 195 168 156 149 148 146 132 126 123 125 132 138 142 138 134 132 137 132 139 142 128 122 122 121 118 119 109 100 107 128 134 138 137
229 155 135 240 270 319 320 300 278 80 94 85 85 118 138 139 139 138 131 128 131 130 125 131 141 144 144 130 121 128 136 132 129 129 129 126 126 129 120 108 101 128 140 163
213 182 174 217 222 201 249 275 289 123 121 128 113 102 105 129 136 128 125 130 133 134 127 124 121 127 133 131 130 133 141 141 140 140 141 140 137 134 137 131 93 58 86 93